Página principal
METAR-TAF:

METAR-TAF

Aeroportos :

Ilha de São Vicente, Cabo Verde

Aeroporto de São Pedro

latitude: 16-49-59N, longitude: 25-03-25W, altura: 20 m

Observação actual do tempo

O boletim foi feito há 1 hora e 24 minutos, às 05:00 UTC
Vento 12 kt de es-nordeste
Temperatura 23°C
Humidade 69%
Pressão 1014 hPa
Visibilidade 10 km ou mais
Nuvens dispersasa uma altura de 2000 ft

METAR: GVSV 150500Z 07012KT 9999 SCT020 23/17 Q1014 NOSIG

Hora: 05:24 (06:24 UTC)

Previsão

O boletim foi feito há 1 hora e 24 minutos, às 05:00 UTC
Previsão válida de 15 às 06 UTC a 16 às 12 UTC
Vento 16 kt de es-nordeste
Visibilidade 10 km ou mais
Nuvens dispersasa uma altura de 2000 ft

TAF: GVSV 150500Z 1506/1612 06016KT 9999 SCT020

Observações e previsões do tempo de mais de 4000 aeroportos (mensagens METAR e TAF).

As estações disponíveis são os pontos amarelos e vermelhos sobre o mapa.

Mova o rato sobre o mapa para ver o nome da estação.

Depois clique no ponto para visualizar as observações e previsões meteorológicas.

Para alterar o mapa : clique nos botões verdes com uma cruz preta para aumentar o zoom; no botão verde com uma pitada de zoom; ou nas setas verdes para mapas adjacentes.


METAR-TAF: